Regional Weather Roundup
Issued by NWS

Home | Current Version | Previous Version | Graphics & Text | Print | Product List | Glossary Off
Versions: 1 2 3 4 5 6 7 8 9 10 11 12 13 14 15 16 17 18 19 20 21 22 23 24 25 26 27 28 29 30 31 32 33 34 35 36 37 38 39 40 41 42 43 44 45 46 47 48 49 50

000
ASUS43 KDMX 271807
RWRIA

WEATHER ROUNDUP FOR IOWA
NATIONAL WEATHER SERVICE DES MOINES IA
100 PM CDT WED MAY 27 2015

NOTE: "FAIR" INDICATES FEW OR NO CLOUDS BELOW 12,000 FEET WITH NO
SIGNIFICANT WEATHER AND/OR OBSTRUCTIONS TO VISIBILITY.

* - THESE STATIONS ARE NOT NWS STATIONS...THUS NOT UNDER NWS
QUALITY CONTROL.  THEY ALSO DO NOT REPORT WEATHER SUCH
AS PRECIPITATION OR FOG.

IAZ001>003-012>014-020>022-031>034-043>046-271900-
   NORTHWEST IOWA

CITY           SKY/WX    TMP DP  RH WIND       PRES   REMARKS
CARROLL *      SUNNY     77  57  50 VRB7      30.04S
CHEROKEE *       N/A     77  55  46 W9        30.04S
DENISON *      SUNNY     77  61  57 W6        30.04S
LE MARS *      SUNNY     79  52  38 NW7G14    30.04F
ORANGE CITY *  SUNNY     77  52  41 W9        30.04S
SHELDON *      SUNNY     79  75  89 W12       30.02F HX  82
SIOUX CITY       N/A     80  54  40 CALM      30.04F HX  80
6HR MIN TEMP:  54; 6HR MAX TEMP:  81;

SPENCER          N/A     80  56  43 W12G21    30.02S HX  80
6HR MIN TEMP:  51; 6HR MAX TEMP:  80;

STORM LAKE *   SUNNY     77  55  47 W10G17    30.06S
$$

IAZ055>058-069>071-079>083-090>094-271900-
   SOUTHWEST IOWA

CITY           SKY/WX    TMP DP  RH WIND       PRES   REMARKS
ATLANTIC *     SUNNY     77  57  50 VRB3G13   30.06S
AUDUBON *      SUNNY     79  55  44 NW5       30.07R
CLARINDA *     SUNNY     79  55  44 CALM      30.10S
COUNCIL BLFS * SUNNY     79  57  47 VRB6      30.07S HX  80
CRESTON *      SUNNY     77  57  50 W6        30.08S
HARLAN  *      SUNNY     77  55  47 VRB6G13   30.09S
LAMONI           N/A     80  54  40 CALM      30.09R HX  80
6HR MIN TEMP:  60; 6HR MAX TEMP:  80;

RED OAK *        N/A     79  57  47 SW3       30.07F HX  80
SHENANDOAH *   SUNNY     79  57  47 S6        30.09S HX  80
$$

IAZ047>049-059>061-072>074-084-271900-
   CENTRAL IOWA

CITY           SKY/WX    TMP DP  RH WIND       PRES   REMARKS
AMES             N/A     77  56  48 W7        30.05S
6HR MIN TEMP:  57; 6HR MAX TEMP:  77;

ANKENY *       SUNNY     77  59  53 W5        30.05S
CHARITON *     SUNNY     75  55  50 VRB6      30.07S
DES MOINES       N/A     79  54  41 W6        30.05S
6HR MIN TEMP:  59; 6HR MAX TEMP:  79;

GRINNELL*        N/A     75  57  53 W9        30.06S
KNOXVILLE *    SUNNY     75  52  43 N6        30.05F
MARSHALLTOWN     N/A     75  59  57 W9        30.05R
6HR MIN TEMP:  59; 6HR MAX TEMP:  75;

PELLA *          N/A     75  64  68 CALM      30.07F
PERRY *          N/A     77  55  46 W8        30.05S
$$

IAZ004>006-015-016-023>025-035-036-271900-
   NORTH CENTRAL IOWA

CITY           SKY/WX    TMP DP  RH WIND       PRES   REMARKS
ALGONA *       SUNNY     77  72  83 W10G16    30.03S
CLARION *      SUNNY     75 -36   1 W13G20    30.03S
ESTHERVILLE      N/A     77  54  44 NW12      30.01S
6HR MIN TEMP:  53; 6HR MAX TEMP:  77;

FORT DODGE *     N/A     77  61  57 W7        30.05R
MASON CITY       N/A     76  59  55 SW15      30.03S
6HR MIN TEMP:  57; 6HR MAX TEMP:  76;

FOREST CITY *  SUNNY     73  59  60 SW8       30.02R
IOWA FALLS *     N/A     75  57  53 W12       30.06R
$$

IAZ007>011-017>019-026>030-037>042-050>054-066-271900-
   NORTHEAST IOWA

CITY           SKY/WX    TMP DP  RH WIND       PRES   REMARKS
CEDAR RAPIDS     N/A     73  61  65 W9        30.05R
6HR MIN TEMP:  59; 6HR MAX TEMP:  73;

CHARLES CITY * SUNNY     75  61  60 SW10G17   30.03S
CLINTON *        N/A     72  59  64 W13G20    30.06R
DECORAH *      MOSUNNY   73  59  60 W8        30.02R
DUBUQUE          N/A     72  59  63 NW9       30.04R
6HR MIN TEMP:  60; 6HR MAX TEMP:  72;

MONTICELLO *   SUNNY     72  61  68 W9        30.04R
OELWEIN *      SUNNY     73  61  64 SW9       30.05R
WATERLOO         N/A     76  59  55 W9        30.03R
6HR MIN TEMP:  58; 6HR MAX TEMP:  76;

$$

IAZ064-065-067-068-078-271900-
   EAST CENTRAL IOWA

CITY           SKY/WX    TMP DP  RH WIND       PRES   REMARKS
DAVENPORT        N/A     73  60  63 NW15      30.04S
6HR MIN TEMP:  62; 6HR MAX TEMP:  73;

IOWA CITY        N/A    N/A N/A N/A MISG      30.06S
MT. PLEASANT *   N/A     73  59  61 W6        30.06S
MUSCATINE *    SUNNY     75  59  57 NW9       30.05S
QUAD CITIES      N/A     74  57  55 NW10G20   30.02S
6HR MIN TEMP:  62; 6HR MAX TEMP:  75;

$$

IAZ062-063-075>077-085>089-095>099-271900-
   SOUTHEAST IOWA

CITY           SKY/WX    TMP DP  RH WIND       PRES   REMARKS
BURLINGTON       N/A     73  60  63 VRB7      30.05F
6HR MIN TEMP:  63; 6HR MAX TEMP:  74;

FAIRFIELD *    SUNNY     73  59  60 W9        30.07R
FORT MADISON * MOSUNNY   73  61  64 W5        30.07S
KEOKUK *       SUNNY     75  61  60 VRB6G12   30.06S
OSKALOOSA *      N/A     74  59  58 W7        30.06F
CENTERVILLE *  SUNNY     75  75 100 W3        30.09F
OTTUMWA          N/A     74  60  61 VRB7      30.06S
6HR MIN TEMP:  59; 6HR MAX TEMP:  74;

WASHINGTON *   SUNNY     73  61  64 W8        30.07S
$$

ABBREVIATIONS USED IN REMARKS
   TC - TEMPERATURES IN CELSIUS
  WCI - WIND CHILL INDEX
   HX - HEAT INDEX
  VSB - VISIBILITY
$$



USA.gov is the U.S. government's official web portal to all federal, state and local government web resources and services.